Regional Weather Roundup
Issued by NWS Cleveland, OH

Home | Current Version | Previous Version | Text Only | Print | Product List | Glossary Off
Versions: 1 2 3 4 5 6 7 8 9 10 11 12 13 14 15 16 17 18 19 20 21 22 23 24 25 26 27 28 29 30 31 32 33 34 35 36 37 38 39 40 41 42 43 44 45 46 47 48 49 50

000
ASUS41 KCLE 281010
RWRCLE
OHIO REGIONAL WEATHER ROUNDUP
NATIONAL WEATHER SERVICE WILMINGTON, OH
600 AM EDT FRI AUG 28 2015

NOTE: "FAIR" INDICATES FEW OR NO CLOUDS BELOW 12,000 FEET WITH NO
SIGNIFICANT WEATHER AND/OR OBSTRUCTIONS TO VISIBILITY.

OHZ001>008-015>018-024>027-034-035-043-044-281100-
   NORTHWEST OHIO

CITY           SKY/WX    TMP DP  RH WIND       PRES   REMARKS
DEFIANCE       PTCLDY    52  50  93 CALM      30.19R
FINDLAY        CLEAR     56  53  90 E3        30.17R
TOLEDO EXPRESS CLEAR     50  50 100 CALM      30.18R
TOLEDO EXEC    CLEAR     55  52  89 CALM      30.19R
LIMA           PTCLDY    54  53  97 E3        30.17S FOG
$$

OHZ009>014-019>023-028>033-038-089-281100-
   NORTHEAST OHIO

CITY           SKY/WX    TMP DP  RH WIND       PRES   REMARKS
CLE-HOPKINS    CLEAR     53  51  93 CALM      30.21S
CLE-LAKEFRONT  PTCLDY    58  53  84 SE8       30.18R
CUY CO. ARPT   NOT AVBL
LORAIN-ELYRIA  CLEAR     51  50  96 CALM      30.20S FOG
ASHTABULA      MOCLDY    47  47 100 CALM      30.21S FOG
AKRON-CANTON   CLEAR     54  51  90 CALM      30.20R
WOOSTER        FOG       47  45  93 NW3       30.21R VSB 1
MANSFIELD      CLEAR     54  53  97 SE5       30.19S
YOUNGSTOWN     PTCLDY    51  50  96 CALM      30.20R
$$

OHZ042-051>053-060>062-070>072-077>081-281100-
  SOUTHWEST OHIO

CITY           SKY/WX    TMP DP  RH WIND       PRES   REMARKS
CINC-COVINGTON PTCLDY    60  57  89 NE5       30.17R
CINC-LUNKEN    FOG       52  52 100 CALM      30.18R VSB 3/4
HAMILTON       PTCLDY    51  50  96 CALM      30.18R
DAYTON         CLEAR     55  54  96 NE3       30.18R
WRIGHT-PAT AFB CLEAR     56  54  92 CALM      30.17R
DAYTON GENERAL CLEAR     54  52  93 E5        30.16S
WILMINGTON     CLEAR     51  50  96 NE5       30.17S FOG
$$

OHZ036-037-039>041-045>050-054>059-063>069-073>076-082>088-281100-
  CENTRAL AND SOUTHEAST OHIO

CITY           SKY/WX    TMP DP  RH WIND       PRES   REMARKS
COLUMBUS       CLEAR     57  54  89 CALM      30.17R
OSU AIRPORT    CLEAR     54  53  97 CALM      30.18R FOG
BOLTON FIELD   CLEAR     50  50  99 CALM      30.18S
RICKENBACK AFB CLEAR     53  52  95 NE5       30.17S
NEWARK         FOG       50  49  96 CALM      30.18S VSB 1/2
MARION         CLEAR     54  52  93 SE3       30.18S
LANCASTER      FOG       48  47  96 CALM      30.18R VSB 1/4
ZANESVILLE     CLEAR     53  50  89 CALM      30.18R FOG
NEW PHILLY     PTCLDY    50  49  96 CALM      30.20R
$$


USA.gov is the U.S. government's official web portal to all federal, state and local government web resources and services.